EN

Hourly Weather Tryascino

Today, 10 May, Monday

Time Temperature Precipitation Wind Pressure Humidity
00:00 +2°C° 0 mm 2 mps 753 mmHg 76%
01:00 +2°C° 0 mm 2 mps 754 mmHg 77%
02:00 +1°C° 0 mm 2 mps 754 mmHg 77%
03:00 +2°C° 0 mm 2 mps 755 mmHg 75%
04:00 +3°C° 0 mm 1 mps 756 mmHg 72%
05:00 +4°C° 0 mm 1 mps 756 mmHg 69%
06:00 +6°C° 0 mm 1 mps 756 mmHg 60%
07:00 +7°C° 0 mm 2 mps 757 mmHg 51%
08:00 +9°C° 0 mm 2 mps 757 mmHg 43%
09:00 +10°C° 0 mm 2 mps 757 mmHg 40%
10:00 +12°C° 0 mm 2 mps 757 mmHg 37%
11:00 +14°C° 0 mm 2 mps 757 mmHg 35%
12:00 +14°C° 0 mm 2 mps 757 mmHg 34%
13:00 +15°C° 0 mm 2 mps 757 mmHg 33%
14:00 +15°C° 0 mm 2 mps 757 mmHg 33%
15:00 +15°C° 0 mm 2 mps 757 mmHg 36%
16:00 +15°C° 0 mm 1 mps 757 mmHg 40%
17:00 +15°C° 0 mm 1 mps 757 mmHg 43%
18:00 +13°C° 0 mm 1 mps 757 mmHg 51%
19:00 +10°C° 0 mm 1 mps 758 mmHg 59%
20:00 +8°C° 0 mm 1 mps 758 mmHg 66%
21:00 +8°C° 0 mm 1 mps 758 mmHg 68%
22:00 +7°C° 0 mm 1 mps 758 mmHg 70%
23:00 +6°C° 0 mm 1 mps 758 mmHg 72%

Tomorrow, 11 May, Tuesday

Time Temperature Precipitation Wind Pressure Humidity
00:00 +6°C° 0 mm 1 mps 758 mmHg 73%
01:00 +6°C° 0 mm 1 mps 758 mmHg 73%
02:00 +5°C° 0 mm 1 mps 758 mmHg 74%
03:00 +6°C° 0 mm 1 mps 759 mmHg 73%
04:00 +6°C° 0 mm 1 mps 759 mmHg 73%
05:00 +6°C° 0 mm 1 mps 759 mmHg 72%
06:00 +8°C° 0 mm 2 mps 759 mmHg 65%
07:00 +10°C° 0 mm 2 mps 759 mmHg 57%
08:00 +13°C° 0 mm 2 mps 759 mmHg 50%
09:00 +13°C° 0 mm 3 mps 758 mmHg 46%
10:00 +16°C° 0 mm 3 mps 758 mmHg 42%
11:00 +17°C° 0 mm 3 mps 758 mmHg 39%
12:00 +18°C° 0 mm 3 mps 758 mmHg 38%
13:00 +18°C° 0 mm 3 mps 758 mmHg 38%
14:00 +19°C° 0 mm 3 mps 757 mmHg 38%
15:00 +18°C° 0 mm 3 mps 757 mmHg 43%
16:00 +18°C° 0 mm 3 mps 757 mmHg 48%
17:00 +17°C° 0 mm 3 mps 757 mmHg 53%
18:00 +16°C° 0 mm 3 mps 757 mmHg 62%
19:00 +14°C° 0 mm 2 mps 757 mmHg 70%
20:00 +12°C° 0 mm 2 mps 757 mmHg 79%
21:00 +10°C° 0 mm 2 mps 757 mmHg 82%
22:00 +10°C° 0 mm 2 mps 757 mmHg 85%
23:00 +9°C° 0 mm 2 mps 757 mmHg 88%

Day after tomorrow, 12 May, Wednesday

Time Temperature Precipitation Wind Pressure Humidity
00:00 +9°C° 0 mm 2 mps 757 mmHg 90%
01:00 +9°C° 0 mm 2 mps 757 mmHg 92%
02:00 +9°C° 0 mm 2 mps 757 mmHg 95%
03:00 +9°C° 0 mm 2 mps 757 mmHg 94%
04:00 +11°C° 0 mm 1 mps 757 mmHg 94%
05:00 +11°C° 0 mm 1 mps 757 mmHg 94%
06:00 +13°C° 0 mm 2 mps 757 mmHg 87%
07:00 +15°C° 0 mm 2 mps 757 mmHg 80%
08:00 +17°C° 0 mm 3 mps 757 mmHg 74%
09:00 +19°C° 0.1 mm 3 mps 756 mmHg 69%
10:00 +20°C° 0.1 mm 4 mps 755 mmHg 64%
11:00 +22°C° 0.1 mm 5 mps 755 mmHg 59%
12:00 +22°C° 0.3 mm 5 mps 754 mmHg 58%
13:00 +22°C° 0.3 mm 5 mps 754 mmHg 57%
14:00 +22°C° 0.3 mm 6 mps 754 mmHg 56%
15:00 +21°C° 0.6 mm 6 mps 753 mmHg 63%
16:00 +20°C° 0.6 mm 5 mps 753 mmHg 70%
17:00 +17°C° 0.6 mm 5 mps 752 mmHg 77%
18:00 +16°C° 0.1 mm 5 mps 752 mmHg 79%
19:00 +15°C° 0.1 mm 4 mps 752 mmHg 82%
20:00 +14°C° 0.1 mm 4 mps 752 mmHg 85%
21:00 +13°C° 0 mm 3 mps 752 mmHg 88%
22:00 +12°C° 0 mm 3 mps 753 mmHg 92%
23:00 +12°C° 0 mm 2 mps 753 mmHg 95%

13 May, Thursday

Time Temperature Precipitation Wind Pressure Humidity
00:00 +12°C° 0 mm 2 mps 753 mmHg 96%
01:00 +10°C° 0 mm 2 mps 753 mmHg 96%
02:00 +11°C° 0 mm 1 mps 753 mmHg 97%
03:00 +10°C° 0 mm 2 mps 753 mmHg 96%
04:00 +10°C° 0 mm 2 mps 753 mmHg 94%
05:00 +10°C° 0 mm 2 mps 753 mmHg 93%
06:00 +13°C° 0 mm 2 mps 753 mmHg 85%
07:00 +14°C° 0 mm 2 mps 753 mmHg 76%
08:00 +16°C° 0 mm 3 mps 753 mmHg 67%
09:00 +17°C° 0 mm 3 mps 752 mmHg 62%
10:00 +18°C° 0 mm 3 mps 752 mmHg 56%
11:00 +19°C° 0 mm 3 mps 752 mmHg 51%
12:00 +19°C° 0.1 mm 3 mps 752 mmHg 55%
13:00 +19°C° 0.1 mm 3 mps 751 mmHg 60%
14:00 +18°C° 0.1 mm 3 mps 751 mmHg 64%
15:00 +18°C° 0.3 mm 3 mps 751 mmHg 70%
16:00 +17°C° 0.3 mm 3 mps 751 mmHg 77%
17:00 +17°C° 0.3 mm 3 mps 751 mmHg 83%
18:00 +16°C° 0.2 mm 2 mps 751 mmHg 87%
19:00 +14°C° 0.2 mm 2 mps 751 mmHg 91%
20:00 +13°C° 0.2 mm 2 mps 751 mmHg 95%
21:00 +13°C° 0 mm 2 mps 751 mmHg 95%
22:00 +12°C° 0 mm 2 mps 751 mmHg 94%
23:00 +12°C° 0 mm 1 mps 751 mmHg 94%

14 May, Friday

Time Temperature Precipitation Wind Pressure Humidity
00:00 +11°C° 0 mm 1 mps 751 mmHg 94%
01:00 +11°C° 0 mm 1 mps 751 mmHg 94%
02:00 +11°C° 0 mm 1 mps 751 mmHg 94%
03:00 +11°C° 0 mm 1 mps 751 mmHg 94%
04:00 +12°C° 0 mm 2 mps 751 mmHg 94%
05:00 +12°C° 0 mm 2 mps 751 mmHg 93%
06:00 +13°C° 0 mm 2 mps 751 mmHg 89%
07:00 +14°C° 0 mm 3 mps 751 mmHg 86%
08:00 +16°C° 0 mm 3 mps 751 mmHg 82%
09:00 +18°C° 0 mm 3 mps 750 mmHg 73%
10:00 +20°C° 0 mm 4 mps 750 mmHg 64%
11:00 +22°C° 0 mm 4 mps 750 mmHg 55%
12:00 +22°C° 0 mm 4 mps 749 mmHg 54%
13:00 +23°C° 0 mm 4 mps 749 mmHg 52%
14:00 +25°C° 0 mm 4 mps 749 mmHg 50%
15:00 +23°C° 0 mm 4 mps 748 mmHg 55%
16:00 +22°C° 0 mm 4 mps 748 mmHg 60%
17:00 +22°C° 0 mm 4 mps 747 mmHg 65%
18:00 +20°C° 0.5 mm 4 mps 747 mmHg 74%
19:00 +18°C° 0.5 mm 3 mps 746 mmHg 83%
20:00 +17°C° 0.5 mm 3 mps 746 mmHg 92%
21:00 +16°C° 0.4 mm 3 mps 746 mmHg 93%
22:00 +16°C° 0.4 mm 3 mps 746 mmHg 94%
23:00 +14°C° 0.4 mm 3 mps 746 mmHg 96%

15 May, Saturday

Time Temperature Precipitation Wind Pressure Humidity
00:00 +14°C° 0.1 mm 3 mps 746 mmHg 96%
01:00 +15°C° 0.1 mm 2 mps 745 mmHg 96%
02:00 +15°C° 0.1 mm 2 mps 745 mmHg 96%
03:00 +15°C° 0 mm 2 mps 745 mmHg 96%
04:00 +15°C° 0 mm 2 mps 745 mmHg 96%
05:00 +15°C° 0 mm 2 mps 745 mmHg 96%
06:00 +16°C° 0 mm 2 mps 745 mmHg 91%
07:00 +17°C° 0 mm 2 mps 745 mmHg 86%
08:00 +19°C° 0 mm 2 mps 745 mmHg 81%
09:00 +20°C° 0 mm 3 mps 746 mmHg 73%
10:00 +21°C° 0 mm 3 mps 746 mmHg 64%
11:00 +24°C° 0 mm 3 mps 746 mmHg 55%
12:00 +24°C° 0 mm 3 mps 746 mmHg 53%
13:00 +25°C° 0 mm 3 mps 746 mmHg 50%
14:00 +25°C° 0 mm 3 mps 745 mmHg 48%
15:00 +24°C° 0 mm 2 mps 745 mmHg 54%
16:00 +24°C° 0 mm 2 mps 745 mmHg 59%
17:00 +23°C° 0 mm 1 mps 744 mmHg 64%
18:00 +21°C° 0 mm 1 mps 744 mmHg 70%
19:00 +19°C° 0 mm 2 mps 744 mmHg 76%
20:00 +17°C° 0 mm 2 mps 744 mmHg 82%
21:00 +17°C° 2.1 mm 2 mps 744 mmHg 87%
22:00 +16°C° 2.1 mm 2 mps 744 mmHg 92%
23:00 +15°C° 2.1 mm 2 mps 744 mmHg 97%
Show more

We Need Your Consent

Meteoprog and our Service Providers may store and access personal data such as cookies, device identifiers or other similar technologies on your device and process such data to personalise content and ads, as well as provide social media features and to analyse the traffic.

  • Store and/or access information on your device

    Cookies, device identifiers or other information can be stored or accessed on your device for the purposes indicated above.

  • Personalised ads and content, ad and content measurement, audience insights, and products development

    Ads and content can be personalised based on a profile. More data can be added to better personalise ads and content. Ad and content performance can be measured. Insights about the audience who saw the ads and content can be derived. Such data can be used to develop or improve user’s experience, systems and software.

By clicking ‘I Agree’ you will allow the use of indicated cookies, device identifiers, web beacons or other similar technologies. Your settings can be changed in the browser on your device.

For certain purposes, legitimate interests may be relied on, rather than consent. You can read more about this in our Privacy and Cookie Policy.